Theta_e
335 335 334 333 333 332 330 327 323 310 311 316 311 309 313 313 310 315 314 306 304 302 302 304 306 309 313 316 316 316 318 319 317 314 312 310 308 306
332 332 331 331 330 329 327 326 323 319 317 314 310 310 311 311 309 312 311 306 303 301 300 301 303 306 310 312 312 313 314 313 312 309 308 306 305 307
329 329 328 326 324 324 323 321 318 316 314 308 309 309 311 311 311 312 311 311 310 302 301 301 301 302 306 307 308 308 308 308 307 306 304 304 306 307
326 324 321 319 318 318 317 316 314 314 312 311 310 309 311 308 310 310 306 306 306 302 300 299 300 301 301 302 302 303 303 303 303 303 303 305 306 308
321 320 316 315 312 312 312 310 309 310 310 309 308 309 303 308 309 306 302 302 302 300 299 298 298 299 299 300 300 299 299 298 298 299 299 300 304 305
312 311 311 311 311 311 309 309 308 309 307 307 308 303 308 305 302 301 300 298 299 299 298 298 298 298 298 297 297 297 297 297 298 297 297 296 297 299
305 306 306 304 302 304 310 311 307 309 308 306 303 302 300 299 301 300 299 296 296 296 297 297 298 298 297 297 297 297 296 296 296 296 296 294 294 295
303 302 302 299 295 294 293 294 304 305 302 302 302 300 302 302 300 298 298 294 296 296 295 292 295 294 294 296 295 295 295 295 295 295 294 294 293 293
300 298 295 297 298 296 292 290 290 291 296 302 300 300 299 301 299 296 295 297 298 295 294 288 290 290 291 293 294 294 294 294 294 293 292 291 291 291
295 295 297 294 292 294 295 296 293 293 293 298 299 300 300 300 299 298 297 294 290 291 294 288 288 288 288 291 294 294 293 293 292 292 290 290 289 289
289 288 288 289 290 293 291 289 288 287 290 290 291 291 291 292 295 296 291 290 287 287 289 289 287 286 286 286 291 292 292 292 292 291 290 289 289 288
287 288 289 288 289 289 289 288 287 287 288 287 288 291 292 295 291 297 294 290 288 287 288 288 286 288 285 286 286 289 290 290 290 290 289 289 288 288
288 288 288 288 289 290 289 287 287 286 286 287 288 288 288 288 292 292 293 292 289 290 290 292 288 287 287 285 286 286 287 287 288 288 289 288 288 287
288 289 287 289 290 289 288 287 286 286 287 286 287 287 287 287 288 288 287 289 291 288 290 292 288 289 288 285 284 285 286 287 287 286 287 287 286 285
288 287 288 289 289 287 287 286 285 288 287 287 286 287 288 289 287 287 287 287 288 288 288 288 288 287 287 287 286 285 284 285 287 286 287 287 284 284
286 287 287 286 286 287 288 289 291 290 288 288 288 289 289 289 288 290 288 289 288 288 287 287 287 287 285 286 287 285 287 285 287 287 287 286 285 284
286 288 289 288 289 289 290 289 289 289 288 289 289 288 288 287 287 288 287 288 287 287 287 287 287 288 287 286 284 286 287 287 287 286 285 284 284 284
290 289 288 288 288 289 289 289 289 287 289 289 289 288 287 286 285 286 287 286 286 287 287 287 285 285 284 285 288 287 288 287 286 286 285 283 282 284
289 289 288 288 288 288 288 288 288 289 289 289 289 289 288 286 285 285 286 286 286 287 287 288 285 284 281 282 288 287 287 287 285 285 285 284 283 284
289 288 288 288 287 287 288 288 288 289 289 289 289 289 288 287 286 285 286 285 286 286 285 287 286 285 284 286 286 286 286 287 284 284 283 284 286 284
287 287 288 288 288 288 288 288 288 288 288 287 287 287 288 287 287 287 287 285 286 287 284 285 288 287 290 289 285 283 285 286 286 284 283 282 281 280
288 287 287 288 288 288 289 288 287 287 287 286 285 285 286 287 285 287 287 286 286 287 287 287 289 289 287 286 285 285 283 284 285 284 284 284 283 278
288 288 288 288 288 288 287 287 287 286 287 286 286 285 285 286 286 286 286 286 286 287 287 286 286 287 286 286 285 285 283 282 282 282 283 282 282 282
Wind_Speed
12 12 11 9 8 8 8 7 8 5 7 5 3 3 4 5 2 1 3 7 7 5 7 9 11 11 10 12 11 9 12 15 18 18 16 14 12 10
7 9 9 7 8 7 7 7 6 4 4 3 2 4 4 2 2 1 2 3 4 8 8 9 9 11 9 11 13 13 13 17 18 16 13 11 10 10
7 9 9 7 5 5 5 5 4 4 4 2 2 4 4 3 3 2 2 2 2 10 13 11 10 7 11 14 14 15 16 17 18 16 14 10 10 8
9 8 7 5 4 4 4 4 4 4 3 7 1 5 4 2 2 2 4 5 5 9 10 12 10 5 6 11 14 15 16 16 14 14 14 11 9 10
5 7 8 10 7 6 7 6 4 3 5 4 3 2 3 2 2 2 2 3 4 7 6 9 12 12 5 9 11 11 12 13 10 6 5 5 9 15
7 8 7 5 9 9 8 8 7 6 4 5 4 2 1 2 1 1 2 1 2 2 6 8 8 11 12 13 12 18 18 15 12 8 5 6 10 14
9 8 7 10 10 8 5 9 7 6 6 5 4 2 3 3 3 2 3 2 1 1 1 3 3 4 6 10 13 15 13 15 15 15 14 12 13 12
12 10 10 14 13 14 10 12 7 8 6 5 4 5 6 4 3 2 2 2 2 2 1 1 0 2 4 4 11 14 14 14 14 16 15 14 14 13
10 9 7 6 11 9 10 12 10 7 5 5 5 5 5 4 4 3 4 3 3 3 2 2 1 2 0 1 10 13 15 15 14 14 14 13 11 11
8 8 10 6 5 8 4 7 6 4 4 3 4 4 4 3 4 2 3 3 1 1 3 2 2 2 1 1 10 13 13 13 14 15 16 15 14 12
7 6 7 4 8 8 6 6 5 4 1 1 4 4 4 5 4 3 3 3 2 3 3 3 3 2 2 1 4 14 13 13 14 15 14 14 15 16
5 6 9 7 9 8 6 6 5 3 2 1 1 2 1 4 7 5 3 4 2 2 5 5 3 4 3 3 4 5 6 14 14 14 15 16 18 8
6 4 3 10 9 8 6 3 3 4 2 1 1 2 3 3 4 5 6 5 4 5 5 5 4 4 1 3 3 4 6 6 6 9 17 17 18 12
6 5 5 11 11 10 7 8 6 3 1 2 1 2 2 2 4 4 6 7 6 5 7 8 4 6 6 5 4 5 5 6 6 7 7 12 17 14
5 7 11 11 11 6 6 6 3 1 0 1 2 2 2 3 3 3 5 7 5 5 5 9 4 6 5 4 4 5 6 7 8 8 8 10 10 10
8 7 6 5 3 3 2 2 2 2 3 3 3 4 4 4 3 4 4 4 3 3 5 8 9 8 5 5 6 7 9 8 11 9 10 10 9 9
7 4 3 2 1 1 2 3 3 3 4 5 5 4 4 4 5 5 5 5 5 3 3 4 7 7 5 5 6 6 9 9 9 10 11 11 10 11
3 3 2 2 3 3 4 4 4 5 6 6 6 5 5 5 4 4 6 6 6 5 5 4 5 4 2 3 9 8 8 10 9 12 11 10 11 10
2 3 2 3 4 4 5 5 5 5 6 6 7 7 5 5 6 6 5 7 6 6 6 6 6 5 8 9 5 15 9 10 10 11 11 11 11 10
2 2 3 3 4 4 5 5 5 5 5 7 7 7 6 7 7 7 7 8 8 7 6 8 8 9 10 10 7 6 18 11 10 12 11 8 6 10
3 3 4 4 4 4 4 5 5 5 5 6 8 7 6 7 8 8 8 10 10 8 8 7 11 12 9 3 4 4 8 17 14 12 11 10 10 7
2 3 4 4 5 5 5 4 5 6 6 6 6 6 6 7 9 8 9 9 9 10 10 7 7 7 6 9 10 7 8 8 11 14 16 9 10 10
3 3 4 5 5 5 6 6 7 7 7 7 7 7 7 8 9 9 9 8 8 10 9 8 6 6 9 11 10 8 12 10 9 10 9 9 2 7
Wind_Direction
227 228 226 223 222 220 221 210 217 166 212 172 154 189 162 172 162 263 339 22 335 329 331 320 304 285 250 189 171 174 210 164 151 157 159 171 181 193
224 226 225 221 209 213 211 210 203 200 171 142 173 118 133 232 144 70 24 278 10 327 341 318 297 286 230 168 172 164 157 152 151 153 164 175 188 207
200 217 215 190 191 190 193 174 152 143 166 119 130 130 164 211 197 223 244 340 336 9 354 331 312 272 191 171 164 160 154 156 155 159 158 170 199 209
206 195 195 174 153 141 140 116 126 107 122 150 167 123 168 184 265 319 19 13 358 15 12 360 329 247 176 150 140 146 149 153 158 164 164 168 171 184
182 187 165 139 125 123 120 115 100 52 72 112 76 61 102 55 297 41 14 359 35 6 20 51 45 37 37 130 115 102 95 92 86 65 109 78 115 119
114 113 101 106 132 133 133 126 124 120 122 105 127 128 148 138 248 285 337 11 311 18 52 59 70 78 83 83 91 119 116 103 100 94 77 107 108 118
88 86 92 102 103 112 132 134 127 128 132 145 147 157 182 182 208 163 215 215 226 256 349 47 62 104 109 101 115 121 123 126 131 125 126 119 114 114
117 108 108 101 93 78 67 66 104 138 144 157 172 195 202 201 166 195 198 200 250 178 145 90 44 144 143 148 147 148 150 148 144 136 141 142 136 132
111 104 85 104 106 101 109 105 91 91 117 165 185 205 209 205 177 186 211 204 222 150 151 170 205 162 48 160 163 158 153 153 144 144 147 138 135 128
99 97 122 120 109 118 126 105 102 95 112 148 190 212 231 180 209 182 188 166 50 136 187 183 171 144 155 217 168 163 159 155 154 155 154 143 134 134
102 106 116 135 127 138 132 123 119 116 151 101 253 251 243 232 207 156 174 172 180 214 196 151 169 122 158 189 192 173 169 173 170 162 156 149 148 141
96 118 142 135 141 136 126 134 128 155 155 155 150 112 235 218 201 213 194 209 147 213 195 176 153 155 179 191 194 194 179 175 171 169 168 161 154 153
140 141 128 134 135 131 132 150 111 144 110 76 139 307 316 278 241 212 195 207 204 228 164 176 164 164 201 149 174 182 182 165 178 178 170 165 164 162
149 143 140 144 145 153 147 133 118 124 79 4 318 311 247 264 275 259 237 223 216 207 170 190 173 182 184 173 181 172 186 174 175 171 169 168 164 170
131 142 149 153 154 147 127 123 130 108 168 295 325 289 264 255 222 274 258 247 227 205 180 198 172 181 188 192 169 170 163 191 185 175 171 170 171 175
127 139 127 124 116 132 169 182 201 205 230 270 288 287 285 274 261 249 256 246 236 220 200 200 198 175 188 201 189 176 188 186 185 183 180 175 168 181
128 127 140 148 204 257 241 238 242 235 232 233 237 251 267 273 288 266 266 256 235 196 202 194 210 210 215 173 191 191 189 195 184 180 179 178 181 185
113 134 153 193 245 262 263 266 245 236 246 249 254 246 239 237 246 246 252 259 252 229 215 195 173 174 167 219 215 202 198 195 183 184 186 184 184 184
138 172 203 216 241 262 269 261 260 255 265 259 252 258 246 230 221 241 239 247 245 241 222 207 186 190 203 221 184 223 200 194 182 185 187 192 191 183
184 235 249 249 261 263 264 266 269 267 267 269 264 264 259 249 238 230 231 236 239 240 242 224 207 203 212 221 207 205 214 187 182 187 187 187 190 159
193 234 248 258 267 271 271 270 261 261 273 277 277 270 255 255 244 241 237 231 234 241 238 233 230 227 232 216 172 185 189 200 184 180 176 176 177 168
239 260 268 272 270 270 272 247 253 248 257 259 255 247 246 252 257 244 238 234 229 237 251 235 244 210 192 211 228 191 188 176 185 183 185 179 174 196
253 267 270 278 269 260 266 261 257 258 255 250 247 249 243 244 248 253 251 241 238 242 248 243 223 198 209 218 223 196 184 176 168 172 185 181 179 353